User: anonymous
Location: Caltech
(34.1382°N, 118.1253°W)
Time: 02:58:56
(UTC-07:00)
Language:

Cosmos 1943 Rocket - Orbit

View from above orbital plane
View from above orbital plane
View from above satellite
View from above satellite

Ground track
Ground track

The orbit data is extracted from the following two-line orbital elements,

1 19120U 88039B   14261.14368171  .00000232  00000-0  13373-3 0  1489
2 19120 071.0139 284.1313 0024237 285.2925 130.9656 14.19041340364098
Epoch (UTC): 18 September 2014 03:26:54
Eccentricity: 0.0024237
inclination: 71.0139°
perigee height: 811 km
apogee height: 846 km
right ascension of ascending node: 284.1313°
argument of perigee: 285.2925°
revolutions per day: 14.19041340
mean anomaly at epoch: 130.9656°
orbit number at epoch: 36409

The dashed part of the orbit path shows where the satellite is in the earth's shadow,  

DLR